Content
SEND FEEDBACK

Daily
Averages
Monthly
Summary
United States of America

GLEN CANYON CITY, UTAH


Home > North America > United States > Utah
Elevation: 4133 feet     Latitude: 37 05N     Longitude: 111 40W

WEATHER
 
SELECT A DAY
Number of Records: 197,737;   Date Range: 1/1/95 - 11/19/14
 
SHARE

PRINT THIS DATA

[ ← Previous Day ]
WEATHER ALMANAC - MAY 15, 2014
[ Next Day → ]
[ °C ]   °F
Weather ElementAverageHighLow
Temperature68.8 °F84 °F (3:53 pm)50 °F (4:53 am)
Dewpoint20.6 °F27 °F (9:53 pm)14 °F (10:53 am)
Humidity17 %27 % (4:53 am)11 % (10:53 am)
Barometer30.08 in30.20 in (7:53 am)29.96 in (5:53 pm)
Wind Speed5.1 mph12.7 mph (1:53 pm)
Wind Gust18.4 mph (2:53 pm)
Weather ElementAverage
Visibility10 mi
Wind DirectionE (90.9 °)

Weather ElementTotal
Precipitation---
Cooling Degree Days2 (Base 65)
Growing Degree Days17 (Base 50)
Averaged from 22 records on May 15, 2014
WEATHER CONDITIONS BREAKOUT
WIND DIRECTION BREAKOUT
WEATHER BY HOUR - MAY 15, 2014
[ °C ]   °F
Local TimeTemperatureDewpointHumidityBarometerVisibilityWind DirectionWind SpeedGust SpeedPrecipitationEventsConditions
1:53 AM53.1 °F17.1 °F24 %30.17 in10.0 miCalmClear
2:53 AM53.1 °F18.0 °F25 %30.17 in10.0 miWSW (250°)3.5 mphClear
3:53 AM51.1 °F16.0 °F25 %30.17 in10.0 miSW (220°)3.5 mphClear
4:53 AM50.0 °F17.1 °F27 %30.17 in10.0 miCalmClear
5:53 AM53.1 °F15.1 °F22 %30.18 in10.0 miWest (260°)3.5 mphClear
6:53 AM55.9 °F16.0 °F21 %30.19 in10.0 miNW (320°)4.6 mphClear
7:53 AM59.0 °F15.1 °F18 %30.20 in10.0 miNW (320°)6.9 mphClear
8:53 AM62.1 °F15.1 °F16 %30.19 in10.0 miCalmClear
9:53 AM68.0 °F16.0 °F14 %30.18 in10.0 miVariable4.6 mphClear
10:53 AM71.1 °F14.0 °F11 %30.16 in10.0 miVariable4.6 mphClear
12:53 PM81.0 °F21.0 °F11 %30.09 in10.0 miNorthClear
1:53 PM82.9 °F24.1 °F12 %30.05 in10.0 miENE (70°)12.7 mphClear
2:53 PM82.9 °F24.1 °F12 %30.02 in10.0 miNE (50°)11.5 mph18.4 mphClear
3:53 PM84.0 °F24.1 °F11 %29.99 in10.0 miVariable4.6 mphClear
4:53 PM84.0 °F24.1 °F11 %29.98 in10.0 miNE (40°)10.4 mphClear
5:53 PM82.9 °F24.1 °F12 %29.96 in10.0 miNE (50°)9.2 mphClear
6:53 PM80.1 °F23.0 °F12 %29.96 in10.0 miENE (70°)5.8 mphClear
7:53 PM75.9 °F26.1 °F16 %29.97 in10.0 miNE (40°)3.5 mphClear
8:53 PM73.9 °F25.0 °F16 %29.99 in10.0 miNNE (30°)4.6 mphClear
9:53 PM72.0 °F27.0 °F19 %29.99 in10.0 miENE (60°)5.8 mphClear
10:53 PM69.1 °F25.0 °F19 %29.99 in10.0 miSSW (210°)4.6 mphClear
11:53 PM68.0 °F27.0 °F21 %29.98 in10.0 miNorth (10°)3.5 mphClear
Hourly data recorded from KPGA, located miles away from Glen Canyon City, Utah







STORIES FROM OUR PARTNERS